User: anonymous   Login
Location: Oshawa
(43.9000°N, 78.8670°W)
Time: 16:37:34
(UTC-04:00)
Language:

Cosmos 839 Rocket - Orbit

View from above orbital plane
View from above orbital plane
View from above satellite
View from above satellite

Ground track
Ground track

The orbit data is extracted from the following two-line orbital elements,

1  9013U 76067B   16271.01634954  .00000009  00000-0  31259-4 0  9991
2  9013  65.8650 157.2879 0714768 176.9102 183.7080 12.35326875814140
Epoch (UTC): 27 September 2016 00:23:32
Eccentricity: 0.0714768
inclination: 65.8650°
perigee height: 961 km
apogee height: 2091 km
right ascension of ascending node: 157.2879°
argument of perigee: 176.9102°
revolutions per day: 12.35326875
mean anomaly at epoch: 183.7080°
orbit number at epoch: 81414

The dashed part of the orbit path shows where the satellite is in the earth's shadow,  

DLR